| time (UTC) | temp F | wind direction | speed MPH | gust MPH | rain 1hr in | rain 24hr in | rain mn in | humidity % | barometer mb |
| 20260906223444 | 99 | 99 | 0.0 | 10.0 | 0.00 | 0.00 | 0.00 | 37 | 1010.4 |
| 20260906222930 | 99 | 119 | 4.0 | 10.0 | 0.00 | 0.00 | 0.00 | 38 | 1010.5 |
| 20260906222433 | 99 | 113 | 4.0 | 13.0 | 0.00 | 0.00 | 0.00 | 39 | 1010.5 |
| 20260906222002 | 99 | 102 | 6.0 | 14.0 | 0.00 | 0.00 | 0.00 | 38 | 1010.5 |
| 20260906221433 | 99 | 87 | 8.0 | 14.0 | 0.00 | 0.00 | 0.00 | 38 | 1010.5 |
| 20260906220934 | 99 | 108 | 4.0 | 14.0 | 0.00 | 0.00 | 0.00 | 38 | 1010.5 |
| 20260906220508 | 99 | 58 | 8.0 | 15.0 | 0.00 | 0.00 | 0.00 | 38 | 1010.6 |
| 20260906215955 | 99 | 70 | 9.0 | 15.0 | 0.00 | 0.00 | 0.00 | 38 | 1010.6 |
| 20260906215442 | 100 | 108 | 8.0 | 13.0 | 0.00 | 0.00 | 0.00 | 38 | 1010.5 |
| 20260906214927 | 99 | 79 | 5.0 | 10.0 | 0.00 | 0.00 | 0.00 | 38 | 1010.6 |
| 20260906214433 | 100 | 79 | 6.0 | 10.0 | 0.00 | 0.00 | 0.00 | 38 | 1010.8 |
| 20260906213937 | 99 | 85 | 1.0 | 8.0 | 0.00 | 0.00 | 0.00 | 39 | 1010.9 |
| 20260906213442 | 97 | 118 | 5.0 | 10.0 | 0.00 | 0.00 | 0.00 | 40 | 1010.9 |
| 20260906212929 | 98 | 102 | 2.0 | 13.0 | 0.00 | 0.00 | 0.00 | 40 | 1011.0 |
| 20260906212438 | 98 | 114 | 7.0 | 13.0 | 0.00 | 0.00 | 0.00 | 40 | 1011.1 |
| 20260906211925 | 97 | 112 | 5.0 | 10.0 | 0.00 | 0.00 | 0.00 | 40 | 1011.2 |
| 20260906211435 | 98 | 113 | 5.0 | 16.0 | 0.00 | 0.00 | 0.00 | 39 | 1011.2 |
| 20260906210946 | 98 | 95 | 5.0 | 16.0 | 0.00 | 0.00 | 0.00 | 39 | 1011.3 |
| 20260906210454 | 98 | 70 | 6.0 | 13.0 | 0.00 | 0.00 | 0.00 | 40 | 1011.3 |
| 20260906205939 | 99 | 65 | 7.0 | 16.0 | 0.00 | 0.00 | 0.00 | 39 | 1011.5 |
| 20260906205427 | 100 | 104 | 11.0 | 16.0 | 0.00 | 0.00 | 0.00 | 39 | 1011.5 |
| 20260906204935 | 100 | 118 | 6.0 | 15.0 | 0.00 | 0.00 | 0.00 | 39 | 1011.7 |
| 20260906204439 | 99 | 73 | 8.0 | 15.0 | 0.00 | 0.00 | 0.00 | 39 | 1011.6 |
| 20260906203944 | 99 | 49 | 6.0 | 14.0 | 0.00 | 0.00 | 0.00 | 40 | 1011.7 |
| 20260906203431 | 99 | 115 | 8.0 | 14.0 | 0.00 | 0.00 | 0.00 | 40 | 1011.7 |
| 20260906202935 | 99 | 53 | 7.0 | 16.0 | 0.00 | 0.00 | 0.00 | 41 | 1011.7 |
| 20260906202458 | 98 | 66 | 10.0 | 16.0 | 0.00 | 0.00 | 0.00 | 41 | 1011.7 |
| 20260906201942 | 99 | 62 | 8.0 | 15.0 | 0.00 | 0.00 | 0.00 | 40 | 1011.8 |
| 20260906201429 | 99 | 76 | 4.0 | 14.0 | 0.00 | 0.00 | 0.00 | 39 | 1011.8 |
| 20260906200938 | 99 | 97 | 9.0 | 14.0 | 0.00 | 0.00 | 0.00 | 39 | 1011.9 |
| 20260906200426 | 98 | 119 | 4.0 | 15.0 | 0.00 | 0.00 | 0.00 | 40 | 1012.1 |
| 20260906195933 | 97 | 106 | 8.0 | 16.0 | 0.00 | 0.00 | 0.00 | 40 | 1012.0 |
| 20260906195437 | 97 | 110 | 8.0 | 16.0 | 0.00 | 0.00 | 0.00 | 40 | 1012.0 |
| 20260906194939 | 98 | 89 | 4.0 | 15.0 | 0.00 | 0.00 | 0.00 | 41 | 1012.0 |
| 20260906194441 | 98 | 102 | 4.0 | 11.0 | 0.00 | 0.00 | 0.00 | 41 | 1012.1 |
| 20260906193930 | 99 | 126 | 6.0 | 12.0 | 0.00 | 0.00 | 0.00 | 41 | 1012.1 |
| 20260906193435 | 98 | 118 | 5.0 | 14.0 | 0.00 | 0.00 | 0.00 | 41 | 1012.3 |
| 20260906192944 | 98 | 101 | 10.0 | 14.0 | 0.00 | 0.00 | 0.00 | 41 | 1012.3 |
| 20260906192430 | 98 | 120 | 6.0 | 15.0 | 0.00 | 0.00 | 0.00 | 41 | 1012.3 |
| 20260906191935 | 99 | 107 | 6.0 | 15.0 | 0.00 | 0.00 | 0.00 | 42 | 1012.5 |
| 20260906191438 | 98 | 97 | 8.0 | 14.0 | 0.00 | 0.00 | 0.00 | 42 | 1012.6 |
| 20260906190944 | 97 | 104 | 2.0 | 15.0 | 0.00 | 0.00 | 0.00 | 43 | 1012.5 |
| 20260906190433 | 98 | 89 | 7.0 | 16.0 | 0.00 | 0.00 | 0.00 | 42 | 1012.6 |
| 20260906185941 | 98 | 85 | 9.0 | 16.0 | 0.00 | 0.00 | 0.00 | 41 | 1012.6 |
| 20260906185426 | 98 | 135 | 4.0 | 15.0 | 0.00 | 0.00 | 0.00 | 42 | 1012.6 |
| 20260906184958 | 98 | 185 | 7.0 | 15.0 | 0.00 | 0.00 | 0.00 | 42 | 1012.6 |
| 20260906184446 | 98 | 131 | 10.0 | 15.0 | 0.00 | 0.00 | 0.00 | 42 | 1012.7 |
| 20260906183928 | 98 | 108 | 6.0 | 10.0 | 0.00 | 0.00 | 0.00 | 42 | 1012.7 |
| 20260906183428 | 98 | 115 | 5.0 | 12.0 | 0.00 | 0.00 | 0.00 | 43 | 1012.8 |
| 20260906183006 | 97 | 112 | 7.0 | 12.0 | 0.00 | 0.00 | 0.00 | 42 | 1012.8 |
| 20260906182430 | 97 | 104 | 7.0 | 12.0 | 0.00 | 0.00 | 0.00 | 42 | 1012.9 |
| 20260906181934 | 97 | 124 | 7.0 | 11.0 | 0.00 | 0.00 | 0.00 | 44 | 1013.0 |
| 20260906181459 | 97 | 106 | 7.0 | 11.0 | 0.00 | 0.00 | 0.00 | 45 | 1013.1 |
| 20260906180940 | 96 | 101 | 5.0 | 12.0 | 0.00 | 0.00 | 0.00 | 46 | 1013.2 |
| 20260906180444 | 96 | 99 | 7.0 | 12.0 | 0.00 | 0.00 | 0.00 | 46 | 1013.3 |
| 20260906175930 | 96 | 110 | 2.0 | 12.0 | 0.00 | 0.00 | 0.00 | 46 | 1013.3 |
| 20260906175502 | 96 | 86 | 8.0 | 12.0 | 0.00 | 0.00 | 0.00 | 46 | 1013.3 |
| 20260906174948 | 96 | 148 | 4.0 | 13.0 | 0.00 | 0.00 | 0.00 | 46 | 1013.4 |
| 20260906174432 | 96 | 108 | 7.0 | 13.0 | 0.00 | 0.00 | 0.00 | 45 | 1013.6 |
| 20260906173941 | 96 | 188 | 5.0 | 12.0 | 0.00 | 0.00 | 0.00 | 46 | 1013.6 |
| 20260906173427 | 95 | 98 | 5.0 | 11.0 | 0.00 | 0.00 | 0.00 | 47 | 1013.8 |
| 20260906172938 | 95 | 114 | 5.0 | 13.0 | 0.00 | 0.00 | 0.00 | 46 | 1013.9 |
| 20260906172440 | 95 | 101 | 7.0 | 13.0 | 0.00 | 0.00 | 0.00 | 48 | 1013.9 |
| 20260906171945 | 95 | 110 | 9.0 | 13.0 | 0.00 | 0.00 | 0.00 | 47 | 1013.9 |
| 20260906171430 | 95 | 120 | 3.0 | 13.0 | 0.00 | 0.00 | 0.00 | 49 | 1013.9 |
| 20260906170940 | 95 | 110 | 5.0 | 13.0 | 0.00 | 0.00 | 0.00 | 50 | 1013.9 |
| 20260906170504 | 94 | 73 | 8.0 | 13.0 | 0.00 | 0.00 | 0.00 | 50 | 1014.0 |
| 20260906165947 | 94 | 100 | 6.0 | 12.0 | 0.00 | 0.00 | 0.00 | 50 | 1014.1 |
| 20260906165437 | 94 | 77 | 6.0 | 12.0 | 0.00 | 0.00 | 0.00 | 51 | 1014.2 |
| 20260906164925 | 94 | 112 | 4.0 | 11.0 | 0.00 | 0.00 | 0.00 | 50 | 1014.2 |
| 20260906164432 | 94 | 109 | 3.0 | 11.0 | 0.00 | 0.00 | 0.00 | 51 | 1014.3 |
| 20260906163956 | 94 | 124 | 5.0 | 14.0 | 0.00 | 0.00 | 0.00 | 52 | 1014.4 |
| 20260906163441 | 94 | 108 | 7.0 | 14.0 | 0.00 | 0.00 | 0.00 | 51 | 1014.4 |
| 20260906162940 | 93 | 164 | 3.0 | 11.0 | 0.00 | 0.00 | 0.00 | 52 | 1014.4 |
| 20260906162426 | 93 | 63 | 7.0 | 11.0 | 0.00 | 0.00 | 0.00 | 52 | 1014.3 |
| 20260906161933 | 93 | 112 | 2.0 | 10.0 | 0.00 | 0.00 | 0.00 | 53 | 1014.3 |
| 20260906161438 | 93 | 113 | 6.0 | 12.0 | 0.00 | 0.00 | 0.00 | 53 | 1014.4 |
| 20260906160945 | 92 | 85 | 7.0 | 12.0 | 0.00 | 0.00 | 0.00 | 53 | 1014.3 |
| 20260906160428 | 93 | 96 | 6.0 | 10.0 | 0.00 | 0.00 | 0.00 | 52 | 1014.3 |
| 20260906155938 | 93 | 79 | 4.0 | 9.0 | 0.00 | 0.00 | 0.00 | 53 | 1014.3 |
| 20260906155440 | 92 | 77 | 4.0 | 8.0 | 0.00 | 0.00 | 0.00 | 54 | 1014.3 |
| 20260906154943 | 92 | 101 | 5.0 | 10.0 | 0.00 | 0.00 | 0.00 | 54 | 1014.3 |
| 20260906154449 | 91 | 106 | 3.0 | 10.0 | 0.00 | 0.00 | 0.00 | 57 | 1014.3 |
| 20260906153955 | 91 | 109 | 2.0 | 7.0 | 0.00 | 0.00 | 0.00 | 58 | 1014.3 |
| 20260906153438 | 90 | 108 | 4.0 | 7.0 | 0.00 | 0.00 | 0.00 | 59 | 1014.3 |
| 20260906152943 | 90 | 118 | 4.0 | 6.0 | 0.00 | 0.00 | 0.00 | 59 | 1014.2 |
| 20260906152429 | 90 | 108 | 5.0 | 7.0 | 0.00 | 0.00 | 0.00 | 59 | 1014.1 |
| 20260906151933 | 90 | 117 | 4.0 | 7.0 | 0.00 | 0.00 | 0.00 | 59 | 1014.1 |
| 20260906151443 | 90 | 74 | 3.0 | 7.0 | 0.00 | 0.00 | 0.00 | 60 | 1013.9 |
| 20260906150928 | 89 | 102 | 3.0 | 6.0 | 0.00 | 0.00 | 0.00 | 60 | 1013.9 |
| 20260906150502 | 89 | 111 | 4.0 | 6.0 | 0.00 | 0.00 | 0.00 | 63 | 1013.8 |
| 20260906145949 | 88 | 104 | 3.0 | 6.0 | 0.00 | 0.00 | 0.00 | 63 | 1013.8 |
| 20260906145428 | 87 | 109 | 4.0 | 7.0 | 0.00 | 0.00 | 0.00 | 64 | 1013.8 |
| 20260906144928 | 87 | 106 | 4.0 | 7.0 | 0.00 | 0.00 | 0.00 | 65 | 1013.7 |
| 20260906144435 | 87 | 121 | 3.0 | 5.0 | 0.00 | 0.00 | 0.00 | 65 | 1013.8 |
| 20260906143941 | 87 | 112 | 2.0 | 4.0 | 0.00 | 0.00 | 0.00 | 65 | 1013.8 |
| 20260906143428 | 86 | 112 | 2.0 | 7.0 | 0.00 | 0.00 | 0.00 | 67 | 1013.8 |
| 20260906142940 | 85 | 114 | 1.0 | 7.0 | 0.00 | 0.00 | 0.00 | 67 | 1013.9 |
| 20260906142449 | 85 | 110 | 4.0 | 6.0 | 0.00 | 0.00 | 0.00 | 67 | 1013.8 |
| 20260906141936 | 85 | 104 | 3.0 | 5.0 | 0.00 | 0.00 | 0.00 | 68 | 1013.8 |
| 20260906141503 | 85 | 103 | 3.0 | 5.0 | 0.00 | 0.00 | 0.00 | 68 | 1013.7 |
| 20260906140932 | 84 | 112 | 1.0 | 5.0 | 0.00 | 0.00 | 0.00 | 69 | 1013.7 |
| 20260906140440 | 84 | 114 | 3.0 | 5.0 | 0.00 | 0.00 | 0.00 | 70 | 1013.8 |
| 20260906135944 | 83 | 117 | 3.0 | 4.0 | 0.00 | 0.00 | 0.00 | 71 | 1013.8 |
| 20260906135428 | 83 | 117 | 2.0 | 4.0 | 0.00 | 0.00 | 0.00 | 71 | 1013.9 |
| 20260906134932 | 83 | 118 | 2.0 | 4.0 | 0.00 | 0.00 | 0.00 | 72 | 1013.9 |
| 20260906134441 | 83 | 118 | 2.0 | 4.0 | 0.00 | 0.00 | 0.00 | 72 | 1014.0 |
| 20260906133941 | 82 | 119 | 1.0 | 4.0 | 0.00 | 0.00 | 0.00 | 72 | 1014.0 |
| 20260906133427 | 82 | 120 | 3.0 | 5.0 | 0.00 | 0.00 | 0.00 | 72 | 1014.1 |
| 20260906132933 | 82 | 121 | 3.0 | 5.0 | 0.00 | 0.00 | 0.00 | 73 | 1014.0 |
| 20260906132506 | 82 | 123 | 2.0 | 5.0 | 0.00 | 0.00 | 0.00 | 73 | 1013.9 |
| 20260906131931 | 81 | 124 | 2.0 | 5.0 | 0.00 | 0.00 | 0.00 | 73 | 1014.0 |
| 20260906131436 | 81 | 123 | 2.0 | 5.0 | 0.00 | 0.00 | 0.00 | 74 | 1013.9 |
| 20260906130941 | 81 | 125 | 3.0 | 5.0 | 0.00 | 0.00 | 0.00 | 74 | 1013.9 |
| 20260906130445 | 81 | 123 | 3.0 | 5.0 | 0.00 | 0.00 | 0.00 | 75 | 1013.8 |
| 20260906125953 | 81 | 124 | 4.0 | 5.0 | 0.00 | 0.00 | 0.00 | 75 | 1013.8 |
| 20260906125437 | 80 | 127 | 2.0 | 4.0 | 0.00 | 0.00 | 0.00 | 76 | 1013.8 |
| 20260906124926 | 80 | 129 | 2.0 | 4.0 | 0.00 | 0.00 | 0.00 | 76 | 1013.7 |
| 20260906124453 | 80 | 129 | 1.0 | 4.0 | 0.00 | 0.00 | 0.00 | 77 | 1013.6 |
| 20260906124000 | 79 | 129 | 2.0 | 3.0 | 0.00 | 0.00 | 0.00 | 77 | 1013.6 |
| 20260906123430 | 79 | 130 | 2.0 | 3.0 | 0.00 | 0.00 | 0.00 | 77 | 1013.6 |
| 20260906122930 | 79 | 130 | 2.0 | 4.0 | 0.00 | 0.00 | 0.00 | 78 | 1013.5 |
| 20260906122437 | 79 | 130 | 3.0 | 4.0 | 0.00 | 0.00 | 0.00 | 78 | 1013.5 |
| 20260906121943 | 79 | 131 | 3.0 | 4.0 | 0.00 | 0.00 | 0.00 | 78 | 1013.5 |
| 20260906121429 | 79 | 133 | 2.0 | 4.0 | 0.00 | 0.00 | 0.00 | 78 | 1013.4 |
| 20260906120928 | 79 | 133 | 1.0 | 3.0 | 0.00 | 0.00 | 0.00 | 78 | 1013.3 |
| 20260906120458 | 79 | 133 | 2.0 | 5.0 | 0.00 | 0.00 | 0.00 | 78 | 1013.2 |
| 20260906115942 | 79 | 133 | 3.0 | 5.0 | 0.00 | 0.00 | 0.00 | 78 | 1013.2 |
| 20260906115448 | 79 | 136 | 3.0 | 5.0 | 0.00 | 0.00 | 0.00 | 78 | 1013.2 |
| 20260906114937 | 79 | 138 | 3.0 | 4.0 | 0.00 | 0.00 | 0.00 | 78 | 1013.2 |
| 20260906114440 | 79 | 138 | 2.0 | 4.0 | 0.00 | 0.00 | 0.00 | 77 | 1013.2 |
| 20260906113927 | 79 | 139 | 1.0 | 3.0 | 0.00 | 0.00 | 0.00 | 77 | 1013.0 |
| 20260906113454 | 79 | 139 | 2.0 | 4.0 | 0.00 | 0.00 | 0.00 | 77 | 1013.0 |
| 20260906112938 | 79 | 139 | 2.0 | 4.0 | 0.00 | 0.00 | 0.00 | 77 | 1013.0 |
| 20260906112425 | 80 | 139 | 3.0 | 4.0 | 0.00 | 0.00 | 0.00 | 76 | 1013.0 |
| 20260906112000 | 80 | 140 | 3.0 | 4.0 | 0.00 | 0.00 | 0.00 | 76 | 1012.8 |
| 20260906111446 | 80 | 141 | 3.0 | 4.0 | 0.00 | 0.00 | 0.00 | 76 | 1012.8 |
| 20260906110935 | 80 | 148 | 3.0 | 5.0 | 0.00 | 0.00 | 0.00 | 75 | 1012.9 |
| 20260906110440 | 80 | 153 | 3.0 | 5.0 | 0.00 | 0.00 | 0.00 | 75 | 1012.9 |
| 20260906105958 | 80 | 158 | 3.0 | 4.0 | 0.00 | 0.00 | 0.00 | 75 | 1012.8 |
| 20260906105448 | 80 | 162 | 2.0 | 4.0 | 0.00 | 0.00 | 0.00 | 74 | 1012.8 |
| 20260906104939 | 80 | 162 | 2.0 | 3.0 | 0.00 | 0.00 | 0.00 | 74 | 1012.7 |
| 20260906104446 | 80 | 163 | 1.0 | 2.0 | 0.00 | 0.00 | 0.00 | 75 | 1012.7 |
| 20260906103959 | 81 | 164 | 1.0 | 1.0 | 0.00 | 0.00 | 0.00 | 74 | 1012.6 |
| 20260906103443 | 81 | 164 | 0.0 | 2.0 | 0.00 | 0.00 | 0.00 | 74 | 1012.6 |
| 20260906102934 | 81 | 164 | 0.0 | 3.0 | 0.00 | 0.00 | 0.00 | 73 | 1012.5 |
| 20260906102434 | 81 | 164 | 2.0 | 3.0 | 0.00 | 0.00 | 0.00 | 73 | 1012.5 |
| 20260906101942 | 81 | 164 | 2.0 | 3.0 | 0.00 | 0.00 | 0.00 | 72 | 1012.6 |
| 20260906101447 | 82 | 164 | 2.0 | 3.0 | 0.00 | 0.00 | 0.00 | 72 | 1012.6 |
| 20260906100931 | 82 | 164 | 0.0 | 3.0 | 0.00 | 0.00 | 0.00 | 71 | 1012.5 |
| 20260906100505 | 82 | 164 | 0.0 | 4.0 | 0.00 | 0.00 | 0.00 | 71 | 1012.5 |
| 20260906095928 | 82 | 164 | 1.0 | 4.0 | 0.00 | 0.00 | 0.00 | 71 | 1012.5 |
| 20260906095457 | 82 | 164 | 2.0 | 3.0 | 0.00 | 0.00 | 0.00 | 70 | 1012.3 |
| 20260906094924 | 82 | 162 | 2.0 | 3.0 | 0.00 | 0.00 | 0.00 | 70 | 1012.3 |
| 20260906094437 | 82 | 158 | 2.0 | 3.0 | 0.00 | 0.00 | 0.00 | 70 | 1012.3 |
| 20260906093944 | 82 | 158 | 2.0 | 3.0 | 0.00 | 0.00 | 0.00 | 70 | 1012.3 |
| 20260906093449 | 82 | 158 | 1.0 | 2.0 | 0.00 | 0.00 | 0.00 | 70 | 1012.2 |
| 20260906092952 | 82 | 158 | 1.0 | 2.0 | 0.00 | 0.00 | 0.00 | 70 | 1012.1 |
| 20260906092444 | 83 | 158 | 0.0 | 4.0 | 0.00 | 0.00 | 0.00 | 70 | 1012.2 |
| 20260906091950 | 83 | 158 | 2.0 | 6.0 | 0.00 | 0.00 | 0.00 | 69 | 1012.2 |
| 20260906091456 | 83 | 158 | 2.0 | 6.0 | 0.00 | 0.00 | 0.00 | 69 | 1012.0 |
| 20260906090944 | 83 | 153 | 2.0 | 4.0 | 0.00 | 0.00 | 0.00 | 69 | 1012.0 |
| 20260906090433 | 83 | 148 | 1.0 | 6.0 | 0.00 | 0.00 | 0.00 | 69 | 1012.0 |
| 20260906085940 | 83 | 148 | 3.0 | 6.0 | 0.00 | 0.00 | 0.00 | 69 | 1011.9 |
| 20260906085427 | 83 | 185 | 2.0 | 5.0 | 0.00 | 0.00 | 0.00 | 69 | 1011.9 |
| 20260906084940 | 83 | 184 | 2.0 | 5.0 | 0.00 | 0.00 | 0.00 | 69 | 1012.0 |
| 20260906084430 | 83 | 193 | 2.0 | 7.0 | 0.00 | 0.00 | 0.00 | 69 | 1012.0 |
| 20260906084003 | 83 | 153 | 4.0 | 7.0 | 0.00 | 0.00 | 0.00 | 69 | 1011.9 |
| 20260906083428 | 83 | 164 | 4.0 | 9.0 | 0.00 | 0.00 | 0.00 | 69 | 1012.0 |
| 20260906082943 | 83 | 193 | 4.0 | 9.0 | 0.00 | 0.00 | 0.00 | 69 | 1011.9 |
| 20260906082453 | 83 | 202 | 4.0 | 6.0 | 0.00 | 0.00 | 0.00 | 69 | 1011.9 |
| 20260906081940 | 83 | 208 | 4.0 | 6.0 | 0.00 | 0.00 | 0.00 | 69 | 1011.9 |
| 20260906081430 | 83 | 210 | 3.0 | 7.0 | 0.00 | 0.00 | 0.00 | 69 | 1011.8 |
| 20260906080934 | 83 | 210 | 2.0 | 5.0 | 0.00 | 0.00 | 0.00 | 69 | 1011.7 |
| 20260906080437 | 84 | 209 | 3.0 | 5.0 | 0.00 | 0.00 | 0.00 | 68 | 1011.8 |
| 20260906075946 | 84 | 210 | 2.0 | 7.0 | 0.00 | 0.00 | 0.00 | 68 | 1011.8 |
| 20260906075435 | 84 | 207 | 4.0 | 7.0 | 0.00 | 0.00 | 0.00 | 68 | 1012.0 |
| 20260906074937 | 84 | 201 | 3.0 | 8.0 | 0.00 | 0.00 | 0.00 | 67 | 1012.0 |
| 20260906074443 | 84 | 198 | 5.0 | 8.0 | 0.00 | 0.00 | 0.00 | 67 | 1012.1 |
| 20260906073946 | 84 | 189 | 3.0 | 9.0 | 0.00 | 0.00 | 0.00 | 67 | 1012.2 |
| 20260906073429 | 84 | 197 | 5.0 | 9.0 | 0.00 | 0.00 | 0.00 | 67 | 1012.3 |
| 20260906072932 | 85 | 187 | 4.0 | 9.0 | 0.00 | 0.00 | 0.00 | 67 | 1012.2 |
| 20260906072438 | 85 | 181 | 5.0 | 9.0 | 0.00 | 0.00 | 0.00 | 67 | 1012.2 |
| 20260906071950 | 85 | 125 | 3.0 | 5.0 | 0.00 | 0.00 | 0.00 | 67 | 1012.3 |
| 20260906071431 | 85 | 193 | 2.0 | 7.0 | 0.00 | 0.00 | 0.00 | 67 | 1012.2 |
| 20260906070944 | 85 | 189 | 3.0 | 7.0 | 0.00 | 0.00 | 0.00 | 67 | 1012.2 |
| 20260906070428 | 85 | 204 | 4.0 | 7.0 | 0.00 | 0.00 | 0.00 | 67 | 1012.1 |
| 20260906065955 | 85 | 181 | 4.0 | 8.0 | 0.00 | 0.00 | 0.00 | 67 | 1012.2 |
| 20260906065435 | 85 | 187 | 5.0 | 8.0 | 0.00 | 0.00 | 0.00 | 67 | 1012.3 |
| 20260906064941 | 85 | 206 | 3.0 | 5.0 | 0.00 | 0.00 | 0.00 | 67 | 1012.2 |
| 20260906064449 | 85 | 208 | 3.0 | 5.0 | 0.00 | 0.00 | 0.00 | 67 | 1012.3 |
| 20260906063936 | 85 | 207 | 3.0 | 5.0 | 0.00 | 0.00 | 0.00 | 67 | 1012.4 |
| 20260906063428 | 85 | 207 | 2.0 | 6.0 | 0.00 | 0.00 | 0.00 | 67 | 1012.4 |
| 20260906062957 | 85 | 203 | 4.0 | 6.0 | 0.00 | 0.00 | 0.00 | 67 | 1012.4 |
| 20260906062505 | 85 | 206 | 4.0 | 6.0 | 0.00 | 0.00 | 0.00 | 66 | 1012.3 |
| 20260906061932 | 85 | 212 | 2.0 | 6.0 | 0.00 | 0.00 | 0.00 | 66 | 1012.3 |
| 20260906061445 | 85 | 211 | 3.0 | 6.0 | 0.00 | 0.00 | 0.00 | 66 | 1012.3 |
| 20260906060927 | 85 | 220 | 2.0 | 4.0 | 0.00 | 0.00 | 0.00 | 66 | 1012.3 |
| 20260906060434 | 85 | 220 | 2.0 | 4.0 | 0.00 | 0.00 | 0.00 | 66 | 1012.4 |
| 20260906055943 | 85 | 220 | 2.0 | 4.0 | 0.00 | 0.00 | 0.00 | 65 | 1012.5 |
| 20260906055435 | 85 | 221 | 1.0 | 3.0 | 0.00 | 0.00 | 0.00 | 65 | 1012.5 |
| 20260906054941 | 85 | 221 | 1.0 | 4.0 | 0.00 | 0.00 | 0.00 | 65 | 1012.4 |
| 20260906054444 | 86 | 220 | 3.0 | 4.0 | 0.00 | 0.00 | 0.00 | 64 | 1012.5 |
| 20260906053928 | 86 | 220 | 3.0 | 5.0 | 0.00 | 0.00 | 0.00 | 64 | 1012.4 |
| 20260906053452 | 86 | 220 | 3.0 | 6.0 | 0.00 | 0.00 | 0.00 | 64 | 1012.4 |
| 20260906052936 | 86 | 178 | 3.0 | 7.0 | 0.00 | 0.00 | 0.00 | 64 | 1012.4 |
| 20260906052504 | 87 | 158 | 3.0 | 7.0 | 0.00 | 0.00 | 0.00 | 63 | 1012.4 |
| 20260906051953 | 87 | 185 | 2.0 | 6.0 | 0.00 | 0.00 | 0.00 | 63 | 1012.5 |
| 20260906051445 | 87 | 185 | 2.0 | 7.0 | 0.00 | 0.00 | 0.00 | 63 | 1012.5 |
| 20260906050951 | 87 | 199 | 3.0 | 11.0 | 0.00 | 0.00 | 0.00 | 62 | 1012.4 |
| 20260906050438 | 87 | 153 | 5.0 | 11.0 | 0.00 | 0.00 | 0.00 | 62 | 1012.4 |
| 20260906045956 | 87 | 153 | 6.0 | 10.0 | 0.00 | 0.00 | 0.00 | 61 | 1012.4 |
| 20260906045438 | 87 | 158 | 5.0 | 10.0 | 0.00 | 0.00 | 0.00 | 61 | 1012.5 |
| 20260906044929 | 87 | 148 | 5.0 | 7.0 | 0.00 | 0.00 | 0.00 | 61 | 1012.4 |
| 20260906044435 | 87 | 148 | 4.0 | 5.0 | 0.00 | 0.00 | 0.00 | 61 | 1012.3 |
| 20260906043942 | 87 | 148 | 2.0 | 5.0 | 0.00 | 0.00 | 0.00 | 61 | 1012.4 |
| 20260906043430 | 88 | 148 | 3.0 | 6.0 | 0.00 | 0.00 | 0.00 | 60 | 1012.3 |
| 20260906042945 | 88 | 148 | 3.0 | 6.0 | 0.00 | 0.00 | 0.00 | 60 | 1012.3 |
| 20260906042450 | 88 | 140 | 3.0 | 7.0 | 0.00 | 0.00 | 0.00 | 60 | 1012.2 |
| 20260906041934 | 88 | 148 | 4.0 | 10.0 | 0.00 | 0.00 | 0.00 | 59 | 1012.2 |
| 20260906041442 | 88 | 153 | 5.0 | 10.0 | 0.00 | 0.00 | 0.00 | 59 | 1012.1 |
| 20260906040929 | 88 | 174 | 5.0 | 10.0 | 0.00 | 0.00 | 0.00 | 59 | 1012.2 |
| 20260906040438 | 88 | 143 | 5.0 | 10.0 | 0.00 | 0.00 | 0.00 | 59 | 1012.1 |
| 20260906035943 | 88 | 164 | 5.0 | 10.0 | 0.00 | 0.00 | 0.00 | 59 | 1012.1 |
| 20260906035432 | 88 | 136 | 3.0 | 10.0 | 0.00 | 0.00 | 0.00 | 58 | 1012.2 |
| 20260906034943 | 88 | 148 | 5.0 | 10.0 | 0.00 | 0.00 | 0.00 | 58 | 1012.3 |
| 20260906034443 | 89 | 167 | 4.0 | 11.0 | 0.00 | 0.00 | 0.00 | 58 | 1012.3 |
| 20260906033931 | 89 | 158 | 7.0 | 11.0 | 0.00 | 0.00 | 0.00 | 57 | 1012.3 |
| 20260906033434 | 89 | 174 | 5.0 | 11.0 | 0.00 | 0.00 | 0.00 | 57 | 1012.3 |
| 20260906032943 | 89 | 162 | 5.0 | 11.0 | 0.00 | 0.00 | 0.00 | 57 | 1012.3 |
| 20260906032431 | 89 | 127 | 4.0 | 11.0 | 0.00 | 0.00 | 0.00 | 57 | 1012.3 |
| 20260906031940 | 89 | 129 | 7.0 | 12.0 | 0.00 | 0.00 | 0.00 | 56 | 1012.3 |
| 20260906031446 | 89 | 158 | 5.0 | 12.0 | 0.00 | 0.00 | 0.00 | 56 | 1012.2 |
| 20260906030949 | 89 | 130 | 5.0 | 10.0 | 0.00 | 0.00 | 0.00 | 55 | 1012.2 |
| 20260906030435 | 89 | 133 | 7.0 | 13.0 | 0.00 | 0.00 | 0.00 | 55 | 1012.2 |
| 20260906025941 | 90 | 117 | 6.0 | 13.0 | 0.00 | 0.00 | 0.00 | 54 | 1012.4 |
| 20260906025428 | 90 | 114 | 10.0 | 13.0 | 0.00 | 0.00 | 0.00 | 54 | 1012.3 |
| 20260906024935 | 90 | 114 | 5.0 | 11.0 | 0.00 | 0.00 | 0.00 | 54 | 1012.2 |
| 20260906024442 | 90 | 142 | 6.0 | 13.0 | 0.00 | 0.00 | 0.00 | 54 | 1012.0 |
| 20260906023931 | 90 | 119 | 6.0 | 13.0 | 0.00 | 0.00 | 0.00 | 54 | 1012.0 |
| 20260906023440 | 90 | 122 | 4.0 | 11.0 | 0.00 | 0.00 | 0.00 | 54 | 1011.9 |
| 20260906022928 | 90 | 118 | 5.0 | 10.0 | 0.00 | 0.00 | 0.00 | 54 | 1011.7 |
| 20260906022433 | 90 | 148 | 6.0 | 10.0 | 0.00 | 0.00 | 0.00 | 53 | 1011.7 |
| 20260906021942 | 91 | 116 | 6.0 | 11.0 | 0.00 | 0.00 | 0.00 | 53 | 1011.6 |
| 20260906021428 | 91 | 116 | 7.0 | 11.0 | 0.00 | 0.00 | 0.00 | 52 | 1011.7 |
| 20260906020941 | 91 | 110 | 4.0 | 15.0 | 0.00 | 0.00 | 0.00 | 52 | 1011.5 |
| 20260906020430 | 92 | 130 | 10.0 | 15.0 | 0.00 | 0.00 | 0.00 | 51 | 1011.5 |
| 20260906015935 | 92 | 124 | 7.0 | 12.0 | 0.00 | 0.00 | 0.00 | 50 | 1011.4 |
| 20260906015453 | 92 | 131 | 7.0 | 14.0 | 0.00 | 0.00 | 0.00 | 50 | 1011.3 |
| 20260906014937 | 93 | 136 | 9.0 | 14.0 | 0.00 | 0.00 | 0.00 | 49 | 1011.3 |
| 20260906014442 | 93 | 105 | 8.0 | 16.0 | 0.00 | 0.00 | 0.00 | 48 | 1011.1 |
| 20260906013945 | 93 | 129 | 7.0 | 16.0 | 0.00 | 0.00 | 0.00 | 46 | 1011.1 |
| 20260906013430 | 93 | 99 | 10.0 | 15.0 | 0.00 | 0.00 | 0.00 | 44 | 1011.0 |
| 20260906012935 | 94 | 106 | 3.0 | 5.0 | 0.00 | 0.00 | 0.00 | 43 | 1010.8 |
| 20260906012438 | 94 | 107 | 3.0 | 4.0 | 0.00 | 0.00 | 0.00 | 43 | 1010.7 |
| 20260906012009 | 94 | 106 | 3.0 | 4.0 | 0.00 | 0.00 | 0.00 | 42 | 1010.6 |
| 20260906011432 | 94 | 106 | 3.0 | 5.0 | 0.00 | 0.00 | 0.00 | 42 | 1010.5 |
| 20260906010944 | 95 | 106 | 4.0 | 7.0 | 0.00 | 0.00 | 0.00 | 41 | 1010.5 |
| 20260906010424 | 95 | 103 | 2.0 | 7.0 | 0.00 | 0.00 | 0.00 | 41 | 1010.5 |
| 20260906005935 | 95 | 104 | 3.0 | 7.0 | 0.00 | 0.00 | 0.00 | 41 | 1010.4 |
| 20260906005510 | 95 | 102 | 4.0 | 7.0 | 0.00 | 0.00 | 0.00 | 40 | 1010.4 |
| 20260906005000 | 96 | 93 | 5.0 | 7.0 | 0.00 | 0.00 | 0.00 | 40 | 1010.4 |
| 20260906004444 | 96 | 114 | 5.0 | 10.0 | 0.00 | 0.00 | 0.00 | 39 | 1010.4 |
| 20260906003929 | 96 | 108 | 3.0 | 10.0 | 0.00 | 0.00 | 0.00 | 39 | 1010.4 |
| 20260906003437 | 96 | 90 | 6.0 | 10.0 | 0.00 | 0.00 | 0.00 | 39 | 1010.4 |
| 20260906002944 | 96 | 100 | 4.0 | 8.0 | 0.00 | 0.00 | 0.00 | 39 | 1010.4 |
| 20260906002429 | 97 | 102 | 4.0 | 9.0 | 0.00 | 0.00 | 0.00 | 38 | 1010.4 |
| 20260906001955 | 97 | 62 | 6.0 | 10.0 | 0.00 | 0.00 | 0.00 | 38 | 1010.4 |
| 20260906001426 | 97 | 93 | 3.0 | 10.0 | 0.00 | 0.00 | 0.00 | 38 | 1010.4 |
| 20260906000930 | 97 | 102 | 5.0 | 9.0 | 0.00 | 0.00 | 0.00 | 38 | 1010.3 |
| 20260906000440 | 98 | 93 | 4.0 | 11.0 | 0.00 | 0.00 | 0.00 | 37 | 1010.2 |
| 20260905235929 | 98 | 55 | 7.0 | 11.0 | 0.00 | 0.00 | 0.00 | 37 | 1010.2 |
| 20260905235439 | 98 | 117 | 2.0 | 10.0 | 0.00 | 0.00 | 0.00 | 38 | 1010.2 |
| 20260905234931 | 98 | 109 | 5.0 | 10.0 | 0.00 | 0.00 | 0.00 | 38 | 1010.1 |
| 20260905234439 | 98 | 91 | 3.0 | 8.0 | 0.00 | 0.00 | 0.00 | 37 | 1010.1 |
| 20260905233946 | 98 | 115 | 4.0 | 7.0 | 0.00 | 0.00 | 0.00 | 37 | 1010.2 |
| 20260905233435 | 98 | 93 | 4.0 | 10.0 | 0.00 | 0.00 | 0.00 | 37 | 1010.2 |
| 20260905232938 | 98 | 101 | 4.0 | 10.0 | 0.00 | 0.00 | 0.00 | 38 | 1010.2 |
| 20260905232445 | 98 | 112 | 3.0 | 10.0 | 0.00 | 0.00 | 0.00 | 38 | 1010.2 |
| 20260905231957 | 98 | 69 | 2.0 | 10.0 | 0.00 | 0.00 | 0.00 | 38 | 1010.1 |
| 20260905231442 | 99 | 113 | 6.0 | 12.0 | 0.00 | 0.00 | 0.00 | 37 | 1010.2 |
| 20260905230944 | 98 | 110 | 8.0 | 13.0 | 0.00 | 0.00 | 0.00 | 38 | 1010.1 |
| 20260905230428 | 98 | 91 | 9.0 | 13.0 | 0.00 | 0.00 | 0.00 | 38 | 1010.1 |
| 20260905225949 | 99 | 106 | 4.0 | 10.0 | 0.00 | 0.00 | 0.00 | 37 | 1010.1 |
| 20260905225429 | 99 | 98 | 4.0 | 9.0 | 0.00 | 0.00 | 0.00 | 38 | 1010.0 |
| 20260905224935 | 99 | 88 | 2.0 | 11.0 | 0.00 | 0.00 | 0.00 | 37 | 1010.2 |
| 20260905224443 | 99 | 106 | 4.0 | 11.0 | 0.00 | 0.00 | 0.00 | 38 | 1010.2 |
| 20260905223933 | 99 | 89 | 1.0 | 12.0 | 0.00 | 0.00 | 0.00 | 37 | 1010.1 |